Ballina Observation History
Time Wind Speed Temp Pressure Rel. Hum Rain
24/09:00am W 2-4 kts 17.9°c 1022.8 hPa 90% 1.8mm
24/08:30am W 1-4 kts 17.2°c 1022.1 hPa 95% 1.8mm
24/08:00am W 5-7 kts 15.7°c 1022.4 hPa 96% 1.8mm
24/07:58am W 4-6 kts 15.8°c 1022.3 hPa 97% 1.8mm
24/07:30am NNW 5-7 kts 15.3°c 1023.1 hPa 97% 1.6mm
24/07:11am SE 4-5 kts 15.2°c 1022.9 hPa 97% 0.6mm
24/07:00am SE 4-6 kts 14.4°c 1023.0 hPa 96% 0.4mm
24/06:30am SE 2-5 kts 14.5°c 1022.5 hPa 95% 0.4mm
24/06:00am WSW 4-7 kts 15.2°c 1021.9 hPa 96% 0.4mm
24/05:30am WSW 4-5 kts 15.3°c 1021.5 hPa 96% 0.4mm
24/05:00am WSW 3-4 kts 14.4°c 1022.2 hPa 96% 0.4mm
24/04:46am WSW 4-6 kts 14.3°c 1022.2 hPa 96% 0.4mm
24/04:31am WSW 5-7 kts 14.5°c 1021.9 hPa 97% 0.4mm
24/04:30am WSW 5-7 kts 14.5°c 1021.9 hPa 97% 0.4mm
24/04:07am WSW 3-4 kts 13.4°c 1022.0 hPa 96% 0.4mm
24/04:00am WSW 3 kts 13.4°c 1022.0 hPa 96% 0.4mm
24/03:46am WSW 2-3 kts 12.9°c 1022.0 hPa 96% 0.4mm
24/03:30am WSW 4-5 kts 13.1°c 1022.2 hPa 96% 0.4mm
24/03:00am WSW 5 kts 13.8°c 1022.0 hPa 96% 0.4mm
24/02:30am WSW 4-5 kts 13.7°c 1022.7 hPa 95% 0.4mm
24/02:00am WSW 6-9 kts 14.6°c 1023.1 hPa 95% 0.4mm
24/01:30am WSW 3-4 kts 14.1°c 1023.6 hPa 95% 0.4mm
24/01:00am WSW 3 kts 14.3°c 1023.8 hPa 95% 0.4mm
24/12:30am WSW 5-7 kts 14.6°c 1024.2 hPa 95% 0.4mm
24/12:04am W 4-7 kts 15.2°c 1024.1 hPa 95% 0.4mm
24/12:00am WNW 5-7 kts 15.3°c 1024.2 hPa 95% 0.4mm
Time Wind Speed Temp Pressure Rel. Hum Rain
23/11:46pm N 9-14 kts 15.3°c 1024.8 hPa 96% 0.2mm
23/11:30pm CALM 0 kts 13.2°c 1024.7 hPa 96% 0.0mm
23/11:00pm CALM 0-2 kts 12.8°c 1024.8 hPa 96% 0.0mm
23/10:53pm E 1-3 kts 12.9°c 1025.1 hPa 95% 0.0mm
23/10:30pm CALM 0 kts 13.0°c 1025.2 hPa 95% 0.0mm
23/10:00pm CALM 0 kts 13.8°c 1025.2 hPa 93% 0.0mm
23/09:42pm CALM 0 kts 14.0°c 1025.5 hPa 92% 0.0mm
23/09:30pm CALM 0 kts 14.8°c 1025.6 hPa 93% 0.0mm
23/09:00pm CALM 0-2 kts 15.4°c 1025.6 hPa 91% 0.0mm
23/08:30pm NW 7-9 kts 15.7°c 1025.4 hPa 91% 0.0mm
23/08:00pm N 5-8 kts 14.8°c 1025.4 hPa 96% 0.0mm
23/07:30pm WNW 4-5 kts 13.7°c 1024.9 hPa 95% 0.0mm
23/07:00pm CALM 0 kts 14.0°c 1024.7 hPa 94% 0.0mm
23/06:30pm CALM 0 kts 14.4°c 1024.4 hPa 91% 0.0mm
23/06:00pm CALM 0 kts 15.4°c 1024.2 hPa 91% 0.0mm
23/05:30pm CALM 0-3 kts 16.0°c 1024.3 hPa 89% 0.0mm
23/05:00pm NNE 2-3 kts 17.0°c 1024.2 hPa 84% 0.0mm
23/04:30pm NE 3-4 kts 18.2°c 1024.3 hPa 79% 0.0mm
23/04:00pm NE 5-7 kts 18.6°c 1024.6 hPa 75% 0.0mm
23/03:30pm ENE 5-7 kts 19.0°c 1024.7 hPa 74% 0.0mm
23/03:00pm E 6-9 kts 19.2°c 1025.0 hPa 75% 0.0mm
23/02:30pm E 7-8 kts 19.0°c 1025.1 hPa 76% 0.0mm
23/02:00pm NW 2-4 kts 20.4°c 1025.2 hPa 71% 0.0mm
23/01:30pm NW 3-5 kts 19.6°c 1025.4 hPa 70% 0.0mm
23/01:00pm NW 3-5 kts 19.1°c 1025.9 hPa 72% 0.0mm
23/12:30pm NW 6-8 kts 18.6°c 1026.6 hPa 78% 0.0mm
23/12:00pm SW 5-11 kts 18.2°c 1027.5 hPa 79% 0.0mm
23/11:30am WNW 5-8 kts 18.6°c 1027.7 hPa 79% 0.0mm
23/11:00am SW 5-8 kts 18.4°c 1028.1 hPa 81% 0.0mm
23/10:30am W 6-9 kts 17.6°c 1028.4 hPa 81% 0.0mm
23/10:00am W 8-11 kts 16.8°c 1029.1 hPa 87% 0.0mm
23/09:44am W 9-11 kts 16.6°c 1029.1 hPa 90% 0.0mm
23/09:30am W 8-11 kts 16.2°c 1029.1 hPa 87% 0.0mm
23/09:00am W 7-9 kts 15.8°c 1029.1 hPa 90% 1.8mm
23/08:30am SSW 4-6 kts 14.6°c 1028.7 hPa 94% 1.8mm
23/08:00am SSW 4-5 kts 13.5°c 1028.5 hPa 95% 1.8mm
23/07:30am SSW 5-6 kts 13.5°c 1028.5 hPa 95% 1.8mm
23/07:00am SSW 4-5 kts 13.3°c 1028.3 hPa 95% 1.8mm
23/06:30am SSW 3-6 kts 13.1°c 1028.0 hPa 95% 1.8mm
23/06:00am WSW 5-7 kts 13.3°c 1027.8 hPa 95% 1.8mm
23/05:30am WSW 2-5 kts 13.4°c 1028.0 hPa 95% 1.8mm
23/05:00am W 7-9 kts 13.5°c 1028.0 hPa 95% 1.8mm
23/04:30am NW 6-9 kts 13.2°c 1027.7 hPa 97% 1.8mm
23/04:00am WNW 5-6 kts 12.9°c 1027.1 hPa 97% 1.8mm
23/03:30am W 3-4 kts 12.4°c 1027.2 hPa 97% 1.8mm
23/03:00am W 5-6 kts 12.2°c 1027.8 hPa 97% 1.8mm
23/02:51am W 5-6 kts 11.8°c 1027.8 hPa 96% 1.8mm
23/02:30am WSW 4-5 kts 12.3°c 1027.5 hPa 96% 1.8mm
23/02:26am WSW 4-5 kts 12.3°c 1027.5 hPa 96% 1.8mm
23/02:00am WSW 5-6 kts 12.5°c 1027.5 hPa 95% 1.8mm
23/01:30am WSW 4-5 kts 13.2°c 1027.7 hPa 95% 1.8mm
23/01:00am W 7-9 kts 13.6°c 1028.5 hPa 95% 1.6mm
23/12:30am WSW 7-9 kts 14.0°c 1028.7 hPa 95% 1.6mm
23/12:14am WSW 8-10 kts 14.1°c 1028.9 hPa 95% 1.6mm
23/12:00am WSW 7-9 kts 14.1°c 1029.0 hPa 95% 1.6mm
Time Wind Speed Temp Pressure Rel. Hum Rain
22/11:56pm SW 7-9 kts 14.1°c 1029.0 hPa 95% 1.6mm
22/11:30pm WSW 6-7 kts 13.4°c 1028.9 hPa 94% 1.2mm
22/11:00pm WSW 8-10 kts 14.3°c 1029.5 hPa 95% 1.2mm
22/10:33pm WSW 5-8 kts 14.5°c 1029.5 hPa 94% 0.8mm
22/10:30pm WSW 5-7 kts 14.6°c 1029.5 hPa 94% 0.8mm
22/10:22pm WSW 5-7 kts 14.7°c 1029.5 hPa 94% 0.8mm
22/10:00pm WSW 7-8 kts 14.3°c 1029.3 hPa 94% 0.6mm
22/09:30pm WSW 6-9 kts 14.7°c 1029.2 hPa 94% 0.6mm
22/09:00pm WSW 7-9 kts 14.5°c 1029.0 hPa 94% 0.6mm
22/08:30pm WSW 5-7 kts 14.6°c 1029.0 hPa 94% 0.6mm
22/08:00pm WSW 7-9 kts 15.0°c 1029.1 hPa 93% 0.6mm
22/07:30pm S 9-12 kts 15.9°c 1029.2 hPa 87% 0.6mm
22/07:00pm S 9-13 kts 15.4°c 1029.2 hPa 91% 0.6mm
22/06:30pm WSW 7-10 kts 15.2°c 1028.8 hPa 90% 0.6mm
22/06:00pm SW 7-9 kts 15.6°c 1028.7 hPa 88% 0.6mm
22/05:30pm SSW 6-8 kts 15.9°c 1028.2 hPa 88% 0.6mm
22/05:01pm S 10-13 kts 16.3°c 1028.0 hPa 88% 0.6mm
22/05:00pm S 10-13 kts 16.3°c 1028.0 hPa 88% 0.6mm
22/04:40pm SSE 14-18 kts 16.1°c 1027.8 hPa 87% 0.4mm
22/04:30pm S 11-18 kts 17.8°c 1027.7 hPa 75% 0.4mm
22/04:00pm SSE 8-12 kts 17.9°c 1027.4 hPa 68% 0.4mm
22/03:30pm S 11-14 kts 18.1°c 1026.9 hPa 67% 0.4mm
22/03:00pm S 11-16 kts 18.1°c 1026.8 hPa 69% 0.2mm
22/02:30pm S 12-17 kts 18.2°c 1026.7 hPa 73% 0.2mm
22/02:00pm SSE 13-19 kts 19.0°c 1026.5 hPa 68% 0.0mm
22/01:30pm S 13-21 kts 19.9°c 1026.8 hPa 65% 0.0mm
22/01:00pm S 15-22 kts 19.5°c 1026.9 hPa 68% 0.0mm
22/12:30pm S 15-20 kts 18.9°c 1027.5 hPa 67% 0.0mm
22/12:00pm S 13-21 kts 19.2°c 1028.1 hPa 68% 0.0mm
22/11:30am SSW 12-19 kts 19.2°c 1028.8 hPa 68% 0.0mm
22/11:00am SSW 11-17 kts 19.0°c 1029.3 hPa 70% 0.0mm
22/10:30am SW 11-15 kts 18.1°c 1029.5 hPa 74% 0.0mm
22/10:00am SW 10-14 kts 17.6°c 1029.4 hPa 78% 0.0mm
22/09:30am SW 10-15 kts 16.7°c 1028.9 hPa 78% 0.0mm
22/09:00am SW 9-15 kts 16.2°c 1028.7 hPa 80% 3.4mm
22/08:30am SW 9-12 kts 15.3°c 1028.2 hPa 83% 3.4mm
22/08:00am SW 7-11 kts 14.1°c 1027.5 hPa 85% 3.4mm
22/07:30am WSW 7-11 kts 12.9°c 1027.3 hPa 89% 3.4mm
22/07:00am WSW 7-9 kts 11.9°c 1027.1 hPa 88% 3.4mm
22/06:30am WSW 9-13 kts 12.8°c 1027.0 hPa 87% 3.4mm
22/06:00am WSW 8-11 kts 12.5°c 1026.7 hPa 88% 3.4mm
22/05:30am SW 9-12 kts 12.8°c 1026.4 hPa 88% 3.4mm
22/05:00am WSW 8-11 kts 12.8°c 1026.0 hPa 90% 3.4mm
22/04:30am WSW 9-12 kts 12.8°c 1025.8 hPa 90% 3.4mm
22/04:00am WSW 9-11 kts 12.6°c 1025.6 hPa 92% 3.4mm
22/03:30am WSW 7-9 kts 12.2°c 1025.6 hPa 93% 3.4mm
22/03:00am WSW 9-12 kts 12.8°c 1025.6 hPa 91% 3.4mm
22/02:30am WSW 9-12 kts 12.9°c 1025.6 hPa 92% 3.4mm
22/02:00am WSW 8-10 kts 12.8°c 1025.5 hPa 92% 3.4mm
22/01:30am WSW 9-12 kts 13.4°c 1025.3 hPa 92% 3.2mm
22/01:00am WSW 8-9 kts 13.1°c 1025.3 hPa 93% 3.2mm
22/12:30am WSW 8-10 kts 13.5°c 1025.4 hPa 94% 3.2mm
22/12:00am SW 7-10 kts 13.8°c 1025.4 hPa 92% 3.2mm